Regional Weather Roundup
Issued by NWS

Home | Current Version | Previous Version | Text Only | Print | Product List | Glossary On
Versions: 1 2 3 4 5 6 7 8 9 10 11 12 13 14 15 16 17 18 19 20 21 22 23 24 25 26 27 28 29 30 31 32 33 34 35 36 37 38 39 40 41 42 43 44 45 46 47 48 49 50
000
ASUS44 KMEG 231400
RWRTN
TENNESSEE HOURLY STATE WEATHER ROUNDUP
NATIONAL WEATHER SERVICE MEMPHIS TN
900 AM CDT WED JUL 23 2014

TNZ002-004-019-021-049-052-054-088>092-231500-
WEST TENNESSEE

CITY           SKY/WX    TMP DP  RH WIND       PRES   REMARKS
MEMPHIS INTL   MOSUNNY   83  70  64 S3        30.07S
NWS MEMPHIS      N/A     84 N/A N/A MISG        N/A
JACKSON        SUNNY     81  73  76 VRB3      30.07S
DYERSBURG      SUNNY     81  66  61 CALM      30.07S
PARIS          SUNNY     81  72  74 CALM      30.08S
$$

TNZ008-025-027-028-033-062-065-066-231500-
NORTH MIDDLE TENNESSEE

CITY           SKY/WX    TMP DP  RH WIND       PRES   REMARKS
NASHVILLE      MOSUNNY   82  72  71 SW3       30.10R
CLARKSVILLE    MOSUNNY   81  73  76 N6        30.09R
COOKEVILLE     SUNNY     81  72  74 CALM      30.12R
CROSSVILLE     SUNNY     78  68  71 W6        30.17S
$$

TNZ061-075-076-078-094-096-097-231500-
SOUTH MIDDLE TENNESSEE

CITY           SKY/WX    TMP DP  RH WIND       PRES   REMARKS
WINCHESTER     SUNNY     81  72  74 CALM      30.12S
SHELBYVILLE    SUNNY     79  73  83 CALM      30.12R
$$

TNZ017-018-042-046-047-231500-
NORTHEAST TENNESSEE

CITY           SKY/WX    TMP DP  RH WIND       PRES   REMARKS
TRI CITIES     CLOUDY    75  67  76 SE3       30.15S
ELIZABETHTON   CLOUDY    72  66  83 CALM      30.16S
$$

TNZ012-013-036-069-073-074-231500-
CENTRAL EAST TENNESSEE

CITY           SKY/WX    TMP DP  RH WIND       PRES   REMARKS
KNOXVILLE      CLOUDY    76  70  82 W3        30.12R
OAK RIDGE      CLOUDY    78  71  79 S3        30.13R
GATLINBURG     CLOUDY    73  70  88 CALM      30.14R
$$

TNZ083-085-099-231500-
SOUTHEAST TENNESSEE

CITY           SKY/WX    TMP DP  RH WIND       PRES   REMARKS
CHATTANOOGA    MOSUNNY   79  70  74 CALM      30.12S
$$

SKY/WX REPORTED AS FAIR MEANS FEW OR NO CLOUDS BELOW
12 THOUSAND FEET.



USA.gov is the U.S. government's official web portal to all federal, state and local government web resources and services.